EHI
0 0 0 0 0 0 0 0 0 0 1 3 4 5 6 5 2 0 0 1 5 7 7 8 11 14 15 17 23 32 38 43 47 50 51 48 43 36 26 14 5 2 1 2 3 3 2 2 3
0 0 0 0 0 0 0 0 1 1 2 4 8 11 11 9 3 0 0 3 7 8 7 8 12 15 15 17 22 28 34 38 41 43 46 46 43 38 27 14 6 3 2 2 3 3 3 3 3
0 0 0 0 0 0 0 0 2 4 3 5 10 14 15 10 4 0 2 5 8 8 6 9 16 19 17 18 20 25 30 32 31 32 35 39 41 38 29 16 7 4 2 2 3 3 3 3 3
0 0 0 0 0 0 0 1 3 5 4 5 9 14 14 9 3 2 4 7 9 8 6 10 19 24 22 20 20 23 26 27 27 27 27 29 32 33 28 18 10 5 2 1 1 1 1 2 2
0 0 0 0 0 0 0 1 4 5 4 6 11 16 15 10 7 7 8 9 11 12 11 12 20 25 26 26 24 23 23 25 27 27 23 21 22 25 23 18 13 7 2 0 0 0 0 1 1
0 0 0 0 0 0 0 1 3 5 6 9 15 20 17 13 13 13 11 10 13 18 18 17 21 24 26 28 28 25 22 23 27 26 21 17 17 18 17 14 11 7 3 1 0 0 1 1 0
0 0 0 0 0 0 0 0 1 4 7 9 15 21 19 16 16 16 13 11 13 19 23 23 22 21 23 25 26 24 21 22 23 21 18 15 15 14 13 12 10 7 5 3 1 2 3 2 1
0 0 0 0 0 0 0 0 2 5 7 8 10 16 21 24 25 22 18 14 13 15 19 21 20 19 20 22 23 21 18 18 18 17 15 15 13 11 10 10 9 7 5 4 3 4 5 4 2
0 0 0 0 0 0 0 1 3 6 9 9 10 18 30 38 38 32 25 20 16 13 13 13 14 17 20 21 20 17 14 14 14 14 14 14 12 10 8 8 7 5 3 3 3 5 5 3 1
0 0 0 0 0 0 0 1 3 6 8 10 17 32 45 47 39 31 25 21 17 13 9 8 9 14 17 17 16 13 11 11 11 12 13 12 9 7 6 5 4 3 2 2 2 3 4 2 1
0 0 0 0 0 0 1 2 3 4 4 7 22 43 51 42 29 22 18 15 12 10 7 5 5 8 9 10 11 10 7 6 7 8 9 7 4 4 4 4 2 1 2 2 1 2 3 2 2
0 0 1 1 1 2 4 7 8 7 4 9 25 43 44 33 22 15 12 9 8 7 6 3 2 3 4 5 6 6 3 3 4 4 4 3 1 1 1 1 1 1 1 1 1 1 2 2 2
0 0 2 3 3 4 7 12 14 12 11 19 33 40 38 30 23 16 11 9 8 6 5 2 1 1 1 2 3 3 2 2 3 2 2 1 0 0 0 0 1 1 2 2 1 0 1 2 3
0 0 2 4 5 4 7 13 15 13 16 27 36 38 34 29 24 18 13 11 9 5 3 2 1 0 0 1 2 2 1 2 2 1 1 1 0 0 0 0 1 2 3 3 2 0 0 1 2
0 0 2 4 4 2 4 9 11 11 18 26 29 31 31 26 21 18 15 13 10 6 3 2 2 1 0 0 1 1 1 1 1 0 0 0 0 0 0 0 1 2 3 3 1 0 0 0 1
0 0 1 3 3 1 1 4 6 9 16 20 21 25 27 23 19 17 16 14 12 7 4 3 2 1 0 0 0 0 0 0 0 0 0 0 0 0 0 0 0 1 3 2 1 0 0 0 0
0 0 1 2 2 1 0 1 4 7 12 15 18 22 25 23 20 18 16 15 11 7 5 5 4 2 1 1 0 1 1 1 0 0 0 0 0 0 0 0 0 1 2 2 1 0 0 0 0
0 0 1 2 1 0 0 1 5 7 10 15 18 20 22 22 20 17 14 12 9 8 7 8 7 3 2 2 1 2 2 1 0 0 0 0 0 0 0 0 0 0 1 1 0 0 0 0 0
0 0 1 1 0 0 0 2 6 9 12 15 17 18 19 19 17 13 10 9 10 9 9 8 5 3 3 2 1 1 2 1 0 0 0 0 0 0 0 0 0 0 0 0 0 0 0 0 0
0 0 0 0 0 0 0 2 6 9 12 15 15 15 16 17 15 12 10 10 11 10 7 4 2 1 1 1 0 0 0 0 0 0 0 0 0 0 0 0 0 0 0 0 0 0 0 0 0
0 0 0 0 0 0 0 2 5 7 9 10 10 11 13 15 14 11 11 10 10 9 6 2 0 0 0 0 0 0 0 0 0 0 0 0 0 0 0 0 0 0 0 0 0 0 0 0 0
0 0 0 0 0 0 0 1 2 4 4 4 5 8 12 14 12 11 11 10 10 8 5 1 0 0 0 0 0 0 0 0 0 0 0 0 0 0 0 0 0 0 0 0 0 0 0 0 0
0 0 0 0 0 0 0 0 1 1 1 2 4 8 13 12 9 9 11 11 10 7 3 1 0 0 0 0 0 0 0 0 0 0 0 0 0 0 0 0 0 0 0 0 0 0 0 0 0
0 0 0 0 0 0 0 0 0 0 1 2 6 10 12 10 7 8 10 11 10 6 2 0 0 0 0 0 0 0 0 0 0 0 0 0 0 0 0 0 0 0 0 0 0 0 0 0 0
0 0 0 0 0 0 0 0 0 1 2 3 6 10 10 6 4 7 10 10 9 6 2 1 0 0 0 0 0 0 0 0 0 0 0 0 0 0 0 0 0 0 0 0 0 0 0 0 0
0 0 0 0 0 0 0 0 0 1 2 3 4 6 6 5 4 8 10 10 8 5 2 1 0 0 0 0 0 0 0 0 0 0 0 0 0 0 0 0 0 0 0 0 0 0 0 0 0
0 0 0 0 0 0 0 0 0 1 1 1 1 2 4 4 5 8 9 8 7 4 1 0 0 0 0 0 0 0 0 0 0 0 0 0 0 0 0 0 0 0 0 0 0 0 0 0 0
0 0 0 0 0 0 0 0 0 0 0 0 0 2 3 4 5 6 6 5 4 2 0 0 0 0 0 0 0 0 0 0 0 0 0 0 0 0 0 0 0 0 0 0 0 0 0 0 0
0 0 0 0 0 0 0 0 0 0 0 0 1 3 4 4 4 4 3 2 1 0 0 0 0 0 0 0 0 0 0 0 0 0 0 0 0 0 0 0 0 0 0 0 0 0 0 0 0
0 0 0 0 0 0 0 0 0 0 0 0 1 3 5 4 3 2 1 0 0 1 1 1 0 0 0 0 0 0 0 0 0 0 0 0 0 0 0 0 0 0 0 0 0 0 0 0 0
Wind_Speed
4 2 2 3 6 5 1 3 1 0 1 2 5 5 6 4 2 2 3 9 12 12 10 12 14 15 15 15 15 15 15 15 15 14 14 14 14 13 13 12 11 11 10 10 10 9 9 9 9
1 0 3 5 5 2 3 2 1 1 4 5 6 5 6 4 4 5 5 8 13 12 9 10 14 15 15 15 14 14 15 15 14 13 13 13 13 12 12 11 11 10 10 9 9 9 9 8 8
1 2 5 5 4 4 2 1 2 4 4 4 4 5 4 4 4 4 6 12 12 10 8 10 15 15 15 15 14 14 14 14 14 13 12 12 12 11 10 10 10 9 9 9 8 8 8 7 7
3 4 6 5 2 3 3 2 2 3 4 5 5 6 5 4 3 6 12 13 12 10 7 10 15 14 14 14 14 13 13 13 13 12 11 11 10 10 9 9 9 8 8 8 7 7 6 6 5
4 5 5 3 1 2 2 2 1 2 3 5 5 5 4 5 8 12 11 11 12 9 7 8 12 13 13 13 13 12 12 11 11 11 10 9 9 8 8 8 8 7 7 6 6 5 4 4 3
5 5 5 1 2 2 2 2 2 4 4 4 5 5 3 4 8 10 9 9 9 10 7 7 11 12 12 12 12 11 10 10 9 9 9 8 7 7 7 7 6 6 5 5 4 4 3 2 2
5 5 4 2 0 2 1 3 3 3 4 3 4 5 4 4 6 9 9 8 8 8 7 5 6 7 10 10 10 9 9 8 8 7 7 7 6 6 5 5 5 4 4 4 3 3 2 2 1
5 5 3 1 1 1 1 2 2 3 3 3 3 6 6 6 8 10 9 7 7 7 6 5 4 4 4 5 8 9 8 7 7 7 7 6 5 5 4 3 3 3 3 3 3 2 2 2 1
4 6 2 3 3 1 0 2 2 2 5 4 3 4 7 13 12 11 10 7 6 6 5 4 4 4 4 4 6 6 6 6 5 5 5 4 2 1 2 2 3 3 3 2 2 2 2 1 1
5 3 3 3 3 3 1 2 3 4 5 4 6 8 14 13 12 11 10 9 7 6 5 3 4 3 3 3 3 2 2 2 2 1 1 1 1 0 1 1 2 3 3 2 2 2 2 1 1
3 3 2 1 2 3 3 2 2 6 3 4 9 15 15 13 10 9 9 7 6 6 5 3 3 3 3 2 3 2 1 1 2 1 1 1 1 0 0 0 1 1 2 1 1 1 1 0 0
2 1 1 1 2 3 3 3 3 3 2 5 10 15 14 13 10 9 8 7 6 5 4 3 3 3 3 3 2 2 1 1 1 1 1 1 0 0 0 0 1 0 0 0 0 0 1 1 1
1 1 1 2 4 4 6 6 5 4 5 10 12 11 11 10 8 6 6 6 6 5 4 3 4 4 3 3 2 2 1 1 1 1 1 1 1 0 0 0 1 1 0 0 0 1 1 1 1
1 2 2 3 4 3 7 4 5 4 7 11 11 9 9 8 8 6 6 5 5 5 4 3 3 3 3 2 2 1 1 1 1 1 1 1 1 1 0 1 1 1 1 0 1 0 1 1 1
2 3 5 3 3 3 6 5 2 5 8 10 9 8 8 7 7 7 6 6 5 4 4 4 4 3 3 3 2 2 2 2 2 1 1 1 1 1 1 0 1 1 1 1 1 1 0 1 1
3 4 3 2 2 2 5 3 2 5 9 9 8 8 8 6 5 5 5 5 5 5 4 3 3 3 3 3 3 3 3 2 2 2 2 2 1 1 1 1 1 1 1 0 0 0 0 0 0
5 3 1 2 1 2 3 4 4 5 8 8 7 7 7 6 5 4 5 5 5 5 4 4 4 3 3 3 3 3 3 2 2 2 2 2 2 1 1 1 1 1 1 1 0 0 1 1 1
1 1 0 2 1 3 3 3 5 5 8 8 7 7 7 6 5 5 4 5 5 5 5 4 4 3 3 3 3 3 3 2 2 2 2 2 2 2 2 1 1 1 1 1 1 0 0 1 1
3 2 1 3 2 3 4 5 6 7 7 7 7 7 7 5 4 4 4 5 5 5 5 4 3 2 2 2 2 2 2 2 2 2 3 3 3 3 2 2 2 1 1 1 1 0 1 0 1
3 2 1 2 2 3 3 2 3 5 7 7 8 8 8 6 4 4 4 4 4 4 4 3 2 2 2 2 2 2 2 1 1 2 3 4 4 4 3 3 2 2 1 2 2 1 1 0 0
2 4 4 3 3 4 4 2 1 2 3 4 5 5 6 8 7 5 4 4 4 3 3 2 2 2 2 3 3 3 2 2 2 3 3 3 4 4 3 3 2 2 2 2 2 2 1 0 0
3 5 6 4 3 0 2 1 3 4 4 5 6 6 7 7 6 5 5 5 4 3 3 3 3 3 3 3 3 3 2 2 1 1 1 3 4 4 4 4 3 3 2 2 2 2 1 1 0
4 2 3 3 4 3 2 2 4 1 6 8 8 8 7 7 6 5 5 5 5 4 4 3 3 3 3 3 3 4 3 2 1 2 3 3 3 4 4 3 3 3 2 2 2 2 1 0 1
4 6 6 6 5 1 1 3 4 4 6 5 7 8 7 7 6 6 5 6 5 4 4 3 4 4 3 3 3 4 4 3 3 2 2 2 2 3 4 3 3 3 2 2 2 2 1 1 1
5 6 4 5 4 3 1 2 6 4 4 6 7 7 7 7 7 7 7 6 5 5 4 3 4 4 3 3 4 3 3 3 3 2 1 1 2 2 3 3 3 2 2 2 2 2 2 2 1
2 7 7 5 4 3 1 3 5 2 2 1 3 6 7 7 6 7 6 6 5 5 4 4 4 3 3 4 3 3 3 2 2 2 1 1 1 1 2 3 3 3 3 3 3 2 2 2 1
4 2 4 7 2 0 3 4 4 0 2 3 4 5 6 6 7 6 6 5 4 4 3 3 3 3 3 3 3 3 3 3 3 2 2 1 1 1 2 3 3 4 4 4 3 2 2 2 2
4 7 5 5 5 2 3 3 4 4 2 2 3 4 5 6 6 6 5 5 4 3 3 3 3 3 2 2 3 3 3 3 3 2 2 2 2 2 3 3 3 3 4 4 3 2 3 3 3
2 3 5 4 4 5 3 6 4 5 5 4 3 4 5 6 7 6 5 4 4 4 4 3 3 2 2 2 3 3 3 3 3 3 3 2 2 3 3 3 3 3 3 3 3 3 3 3 3
3 4 6 4 3 4 3 6 3 2 3 4 4 5 5 6 6 6 5 5 4 4 4 3 2 2 2 2 3 2 2 3 3 3 3 3 3 3 3 3 3 3 4 3 3 3 3 3 3
Wind_Direction
301 314 98 71 58 51 285 264 221 358 34 92 110 113 116 107 140 155 99 128 130 138 143 143 138 133 129 126 124 123 122 121 121 121 123 124 126 128 128 128 128 126 125 124 122 120 119 119 121
297 71 66 64 85 76 280 260 229 165 139 110 84 83 83 75 69 96 113 130 134 137 140 144 141 137 133 131 129 128 127 126 125 125 126 127 127 128 128 129 128 128 128 128 126 125 124 124 126
270 73 85 77 106 170 223 236 129 89 87 81 83 64 75 87 107 111 133 135 132 136 139 148 144 140 138 137 135 133 132 131 130 130 131 131 130 128 128 129 129 130 130 130 128 128 129 131 132
85 54 57 76 145 221 218 201 118 107 65 57 89 75 58 45 106 126 133 136 134 137 139 148 144 142 141 141 139 138 136 136 136 136 135 133 132 131 132 133 133 133 133 132 132 131 132 135 136
61 78 68 57 268 276 264 270 178 119 87 74 88 91 50 18 97 121 130 135 136 136 136 144 143 141 142 143 143 142 141 140 139 138 138 137 136 135 136 138 138 139 140 139 138 139 140 141 142
59 69 88 139 282 295 298 323 83 95 98 88 88 96 68 85 112 124 125 127 133 135 131 136 144 143 142 143 145 145 144 144 142 141 141 140 141 141 142 144 144 144 148 151 152 152 157 160 151
101 96 130 165 239 322 343 24 74 115 107 100 106 102 107 118 117 118 113 116 121 125 124 123 134 142 145 143 142 144 145 145 144 145 145 145 146 146 149 152 155 155 159 163 170 178 184 190 207
120 102 103 154 156 255 336 36 53 96 107 77 93 132 149 146 123 111 107 114 121 119 119 115 115 121 129 139 146 147 149 150 152 153 153 156 157 158 162 162 174 178 180 185 192 206 226 231 248
89 78 137 197 181 209 68 82 55 60 91 68 62 110 128 130 126 121 121 120 122 122 119 116 114 117 120 130 149 151 155 157 158 161 164 160 145 151 169 182 194 202 205 210 217 229 236 260 299
83 115 214 216 181 157 107 106 126 94 82 85 84 96 118 130 134 135 140 141 142 143 139 125 125 120 115 133 120 112 126 129 125 119 141 124 125 157 196 257 234 239 245 249 256 259 257 254 325
117 173 227 247 160 140 118 92 84 120 126 157 143 137 136 137 140 143 144 142 147 150 147 144 134 130 123 110 115 109 107 114 115 114 114 111 107 56 336 344 298 293 284 294 315 305 282 260 247
123 260 220 259 91 100 116 113 81 72 138 126 137 142 142 145 150 151 147 142 141 144 148 143 129 122 115 106 117 122 120 127 131 130 117 115 111 353 330 314 303 306 322 341 322 273 248 242 243
144 286 25 81 75 93 93 83 90 67 90 109 120 129 139 143 139 136 137 138 139 141 142 144 133 130 122 114 124 127 128 129 123 98 96 128 145 261 348 339 345 332 2 24 270 270 278 269 259
143 86 39 55 75 75 99 80 79 95 110 114 122 128 135 140 138 136 132 131 136 139 137 130 121 120 120 117 115 118 122 111 91 76 51 90 118 116 63 10 9 348 349 344 282 265 291 274 247
89 60 27 29 75 109 95 59 75 135 123 121 126 131 129 130 138 144 146 141 138 131 125 122 124 114 118 115 109 98 90 90 84 62 46 39 54 97 96 56 354 329 346 0 351 17 47 271 255
57 62 45 327 74 106 106 149 160 140 133 135 138 138 131 128 133 128 122 120 116 115 113 108 119 115 110 101 86 79 79 77 67 49 39 28 27 78 99 64 351 333 345 16 68 61 91 285 346
37 70 70 320 18 109 119 174 174 150 142 146 149 145 140 135 124 111 107 111 109 110 112 101 92 103 101 91 83 80 77 70 61 46 33 19 10 27 59 45 351 339 9 7 352 44 194 161 106
163 108 77 252 257 116 138 180 164 159 154 157 161 156 154 153 142 121 107 103 103 103 103 100 91 88 99 93 83 72 65 52 44 42 31 27 17 24 36 25 340 353 31 17 24 18 323 135 129
153 141 231 259 211 145 171 174 179 169 166 170 173 171 166 154 127 113 113 111 102 89 89 91 99 102 108 102 100 85 59 41 28 26 28 30 24 24 30 15 5 6 18 353 359 104 51 66 119
146 134 261 308 56 123 132 165 179 181 184 183 184 181 172 156 147 132 125 113 105 102 97 97 100 113 115 114 104 100 95 75 50 26 30 27 22 21 30 26 14 6 18 16 14 29 41 278 127
198 184 198 198 60 63 101 36 202 201 179 182 188 181 175 171 167 156 137 117 102 95 92 87 77 80 81 90 94 87 71 52 36 25 18 15 25 27 27 27 23 22 30 15 1 9 12 232 334
240 217 180 158 118 121 131 216 253 205 203 204 200 192 187 178 165 155 147 127 117 111 92 76 75 69 72 89 101 106 106 91 53 36 23 19 26 26 30 26 24 20 24 19 359 9 348 136 187
206 121 122 120 123 90 45 138 282 196 224 226 210 200 190 177 164 155 146 132 118 110 104 94 89 78 72 80 98 101 91 87 75 62 44 27 16 17 21 22 17 12 12 12 10 7 17 59 136
135 78 61 52 74 86 231 155 263 229 230 229 208 195 182 168 154 145 133 124 114 106 98 94 92 79 77 83 84 95 98 96 86 64 42 18 5 5 8 14 12 11 6 1 358 360 11 14 74
90 90 42 11 16 253 259 163 246 255 251 228 212 192 174 165 156 150 144 135 126 116 104 93 91 78 69 77 79 86 96 99 100 92 67 33 8 352 347 2 9 3 355 357 5 18 15 15 33
150 135 154 188 212 262 334 223 253 281 304 251 173 161 162 158 149 146 145 136 131 124 113 102 92 79 63 67 68 74 80 82 79 75 76 54 5 328 341 7 16 11 10 17 23 29 17 23 28
125 129 150 127 127 152 277 282 297 18 48 82 119 136 153 154 148 141 133 131 134 128 117 113 107 91 74 74 74 67 71 72 69 56 54 46 8 359 13 22 28 19 17 19 27 33 18 25 28
110 136 98 115 146 225 274 261 251 243 221 158 153 154 151 142 136 132 134 138 133 118 102 94 96 99 89 85 83 84 74 74 74 63 48 34 17 18 21 24 30 24 18 16 24 19 16 38 27
76 82 98 108 146 156 222 259 235 220 200 179 169 155 147 143 141 138 138 135 126 112 105 99 93 89 87 85 81 77 65 62 63 53 32 20 16 18 20 21 28 26 20 16 28 25 24 33 24
145 152 147 148 195 168 176 258 303 195 171 156 147 138 134 134 134 134 132 128 124 121 117 115 115 112 114 103 92 83 72 63 56 44 24 22 22 18 19 24 26 19 19 18 28 24 24 27 21